ATLAS 5 CENTAUR DEB, 43961

Orbit data source: Space-Track

ATLAS 5 CENTAUR DEB, 43961 is space debris in HEO originally from a launch on Wed, 17 Sep 2014 UTC launched from the Air Force Eastern Test Range (AFETR). Debris objects in space refer to the collection of defunct objects orbiting the Earth. Examples of debris include non-operational satellites, rocket bodies, and fragments generated from explosions, collisions, or faulty payload assembly.

Loading next visibility...
ATLAS 5 CENTAUR DEB details
Identifier
43961, 2014-055Q
Orbit
HEO
Last TLE update4 days ago
Origin
Flag of USULA (US)
ManufacturerUnknown
MissionSpacecraft
Bus & MotorUnknown
MassUnknown
Launch date (UTC)
2014-09-17 (10 years ago)
Launch vehicleUnknown
Launch site
Air Force Eastern Test Range (AFETR)
Object type
Payload
Rocket body
Debris
Shape & HBRUnknown
Radar Cross SectionSmall (<0.1 m²)

Expand to show TLE details & history

TLE from 4 days ago
0 ATLAS 5 CENTAUR DEB
1 43961U 14055Q   24357.70860111 -.00000038  00000-0  00000+0 0  9994
2 43961  19.6105 196.5063 4927791  72.8065 334.0553  1.85335386 42656
Epoch: 2024-12-22T17:00Z
Definitive object data (Epoch: 2024-12-22T17:00:23.135Z)
Latitude-0°
Longitude-150.3072°
Altitude12,096.453 km
Speed5.377 km/s
True Right ascension13h 06m 07s
True Declination0° 00' 00"
Sunlit
Object was in daylight at TLE epoch
Visualization TLE readout
Latitude-18.09692°
Longitude142.75031°
Altitude28,054.115 km
Speed2.986 km/s
Apparent Right ascension08h 45m 42s
Apparent Declination-21° 28' 37"
Sunlit
Object is in daylight
Visualization observer readout
Local Sidereal Time21:35:11
Azimuth33.396° NE
Elevation-68.762°
Doppler factor1
Orbital elements
Apogee altitude35,416.723 km
Perigee altitude7,823.044 km
Semi-major axis27,998.02 km
Eccentricity0.4927791
Inclination19.6105°
RAAN196.5063°
Arg. of periapsis72.8065°
True anomaly287.3653°
Mean anomaly334.0553°
Eccentric anomaly313.6135°
Mean motion0.46329 °/min
BSTARUnknown
Orbital period777.05 mins
Loading maneuver chart data...

ATLAS 5 CENTAUR DEB Visibility forecast

Observer location: undefined°, undefined

Span
Click to sort rows by Start time (UTC) header in descending order
Start Az.
Max El. time (UTC)
Max El. Az.
Max El.
End time (UTC)
End Az.
738 mins2024-12-27 02:09:04.560Z262.546° W2024-12-27 13:48:04.560Z158.089° S30.141°2024-12-27 14:27:04.560Z96.252° ESE
|